Flag for U.S.A. Weather past 2 weeks in Citrus Heights, California, U.S.A.

Now
81 °F

Partly sunny.


Feels Like: 81 °F
Forecast: 65 / 81 °F
Wind: 5 mph from West

Location: Mather Field

Current Time: Sep 18, 2014 at 3:22:37 PM

Latest Report: Sep 18, 2014 at 2:50 PM


Visibility: 10 mi

Pressure: 29.82 "Hg

Humidity: 45%

Dew point: 57 °F

Location of Citrus HeightsLocation

Historic Weather in Citrus Heights — Graph

°F

Citrus Heights temperature yesterday

Maximum temperature yesterday: 90 °F (at 2:50 PM)
Minimum temperature yesterday: 57 °F (at 5:45 AM)
Average temperature yesterday: 73 °F

Past Weeks' High & Low Weather Summary

 TemperatureHumidityPressure
High100 °F (Sep 12, 3:45 PM)100% (Sep 4, 2:55 AM)29.98 "Hg (Sep 4, 2:55 AM)
Low48 °F (Sep 9, 4:54 AM)12% (Sep 12, 5:50 PM)29.61 "Hg (Sep 3, 6:45 PM)
Average74 °F48%29.81 "Hg
* Reported Sep 3 1:45 PM — Sep 18 1:48 PM, Citrus Heights, Weather by CustomWeather, © 2014

Note: Actual official high and low records may vary slightly from our data, if they occured in-between our weather recording intervals... More about our weather records

Advertising

Citrus Heights weather history for previous 24 hours

 ConditionsComfort  
Time TempWeatherWind HumidityBarometerVisibility
1:48 PM
Sep 18
79 °FPartly sunny.5 mph51%29.85 "Hg10 mi
12:59 PM77 °FPartly sunny.8 mph57%29.86 "Hg10 mi
11:45 AM75 °FMostly cloudy.9 mph65%29.87 "Hg10 mi
9:55 AM73 °FBroken clouds.6 mph69%29.86 "Hg10 mi
8:45 AM72 °FPartly sunny.No wind73%29.85 "Hg10 mi
7:50 AM70 °FScattered clouds.3 mph78%29.83 "Hg10 mi
6:55 AM68 °FPartly cloudy.5 mph88%29.82 "Hg10 mi
5:55 AM66 °FPassing clouds.No wind94%29.81 "Hg10 mi
4:50 AM68 °FOvercast.No wind83%29.80 "Hg10 mi
3:55 AM68 °FPassing clouds.No wind83%29.80 "Hg10 mi
11:30 PM
Sep 17
66 °FPassing clouds.3 mph68%29.78 "Hg10 mi
10:50 PM66 °FPassing clouds.3 mph68%29.78 "Hg10 mi
9:48 PM70 °FPassing clouds.8 mph57%29.77 "Hg10 mi
8:45 PM73 °FPassing clouds.8 mph47%29.74 "Hg10 mi
7:45 PM75 °FScattered clouds.18 mph41%29.72 "Hg10 mi
6:45 PM81 °FScattered clouds.15 mph26%29.70 "Hg10 mi
5:59 PM82 °FScattered clouds.16 mph30%29.70 "Hg10 mi
3:45 PM90 °FScattered clouds.12 mph24%29.71 "Hg10 mi
Weather by CustomWeather, © 2014

See weather overviewHow to use our weather pages